Weather reports worldwide

Advertisment
Holbeach, United Kingdom (3469): temperature & dewpoint: 15.05.2019 15:00:00 - 21.05.2019 15:00:00 (BST)Holbeach, United Kingdom (3469): temperature -20cm & temperature -100cm: 15.05.2019 15:00:00 - 21.05.2019 15:00:00 (BST)Holbeach, United Kingdom (3469): wind speed & gusts: 15.05.2019 15:00:00 - 21.05.2019 15:00:00 (BST)Holbeach, United Kingdom (3469): wind direction: 15.05.2019 15:00:00 - 21.05.2019 15:00:00 (BST)Holbeach, United Kingdom (3469): reduced air pressure: 15.05.2019 15:00:00 - 21.05.2019 15:00:00 (BST)Holbeach, United Kingdom (3469): visibility: 15.05.2019 15:00:00 - 21.05.2019 15:00:00 (BST)Holbeach, United Kingdom (3469): precipitation: 15.05.2019 15:00:00 - 21.05.2019 15:00:00 (BST)
Date & Time tt [°C] td [°C] tt -20cm [°C] tt -100cm [°C] ff [km/h] ff [kn] fx [km/h] fx [kn] dd ppp [hPa] vv [km] rr [mm]
21.05.2019 15:00:00 16,0 11,0 - - 22 12 - - E - 10 0,0
21.05.2019 14:00:00 16,9 10,3 - - 15 8 - - N 1018,0 30 0,0
21.05.2019 13:00:00 17,3 8,7 - - 15 8 - - NNW 1017,9 30 0,0
21.05.2019 12:00:00 15,9 8,4 - - 21 11 - - NW 1017,9 35 0,0
21.05.2019 11:00:00 16,1 9,9 - - 22 12 - - NW 1017,8 27 0,0
21.05.2019 10:00:00 14,6 9,8 13,2 11,2 18 10 - - NW 1017,5 40 0,0
21.05.2019 09:00:00 12,2 9,2 - - 18 10 - - NW 1017,6 35 0,0
21.05.2019 08:00:00 11,0 9,1 - - 22 12 - - NW 1017,2 35 0,0
21.05.2019 07:00:00 8,7 8,0 - - 13 7 - - WNW 1016,7 18 0,0
21.05.2019 06:00:00 6,3 6,0 - - 8 4 - - WNW 1016,6 14 0,2
21.05.2019 05:00:00 6,3 5,7 - - 8 4 - - WNW 1016,2 8 0,0
21.05.2019 04:00:00 7,4 6,9 - - 11 6 - - WNW 1015,9 13 0,0
21.05.2019 03:00:00 7,8 7,5 - - 11 6 - - NW 1016,0 9 0,0
21.05.2019 02:00:00 7,2 7,0 - - 5 3 - - W 1015,8 - 0,0
21.05.2019 01:00:00 8,5 8,4 - - 8 4 - - W 1015,7 2,5 0,0
21.05.2019 00:00:00 8,7 8,5 - - 4 2 - - ENE 1015,5 0,1 0,0
20.05.2019 23:00:00 9,9 9,8 - - 13 7 - - ENE 1015,6 3,9 0,0
20.05.2019 22:00:00 10,5 10,0 - - 11 6 - - ENE 1015,2 7 0,0
20.05.2019 21:00:00 11,4 10,7 - - 15 8 - - ENE 1014,3 6 0,0
20.05.2019 20:00:00 12,4 10,5 - - 15 8 - - ENE 1014,1 19 0,0
20.05.2019 19:00:00 14,5 10,2 - - 21 11 - - ENE 1013,8 29 0,0
20.05.2019 18:00:00 14,5 9,7 - - 16 9 - - ENE 1013,5 50 0,0
20.05.2019 17:00:00 16,3 10,6 - - 18 10 - - ENE 1013,3 50 0,0
20.05.2019 16:00:00 16,7 10,7 - - 22 12 - - ENE 1013,4 10 0,0
20.05.2019 15:00:00 17,0 12,8 - - 18 10 - - E 1013,3 17 0,0
20.05.2019 14:00:00 16,2 12,1 - - 11 6 - - ENE 1013,1 10 0,0
20.05.2019 13:00:00 15,0 11,6 - - 9 5 - - ENE 1013,0 5 0,0
20.05.2019 12:00:00 13,9 11,6 - - 11 6 - - NE 1013,1 5 0,0
20.05.2019 11:00:00 13,3 11,2 - - 9 5 - - NE 1012,9 5 0,0
20.05.2019 10:00:00 12,8 10,8 13,2 11,2 11 6 - - NNW 1012,6 4,5 0,0
20.05.2019 09:00:00 11,9 10,6 - - 13 7 - - NNW 1012,4 7 0,0
20.05.2019 08:00:00 11,2 10,3 - - 13 7 - - NNW 1012,1 5 0,0
20.05.2019 07:00:00 10,9 10,6 - - 13 7 - - N 1011,7 4,7 0,0
20.05.2019 06:00:00 10,0 9,8 - - 8 4 - - N 1011,4 3,1 0,0
20.05.2019 05:00:00 9,9 9,5 - - 5 3 - - NW 1011,3 2,7 0,0
20.05.2019 04:00:00 10,2 9,9 - - 9 5 - - NW 1011,3 4,3 0,0
20.05.2019 03:00:00 10,5 10,1 - - 9 5 - - WNW 1011,2 4,9 0,0
20.05.2019 02:00:00 10,6 10,1 - - 4 2 - - N 1011,4 4,9 0,0
20.05.2019 01:00:00 10,7 10,2 - - 8 4 - - ENE 1011,7 6 0,0
20.05.2019 00:00:00 10,7 10,0 - - 13 7 - - ENE 1011,7 7 0,0
19.05.2019 23:00:00 10,9 10,2 - - 15 8 - - ENE 1011,9 8 0,0
19.05.2019 22:00:00 11,0 10,3 - - 13 7 - - ENE 1011,6 10 0,0
19.05.2019 21:00:00 10,8 9,9 - - 13 7 - - NE 1011,3 12 0,0
19.05.2019 20:00:00 11,6 10,2 - - 13 7 - - NE 1011,0 15 0,0
19.05.2019 19:00:00 12,2 10,2 - - 18 10 - - ENE 1010,6 21 0,0
19.05.2019 18:00:00 13,7 9,7 - - 18 10 - - ENE 1010,3 45 0,0
19.05.2019 17:00:00 14,9 11,0 - - 18 10 - - ENE 1010,6 45 0,0
19.05.2019 16:00:00 16,0 9,6 - - 15 8 - - ENE 1010,6 27 0,0
19.05.2019 15:00:00 15,7 10,5 - - 16 9 - - E 1010,7 14 0,0
19.05.2019 14:00:00 15,5 11,5 - - 13 7 - - ENE 1010,8 12 0,0
19.05.2019 13:00:00 14,5 11,9 - - 11 6 - - NE 1011,0 10 0,0
19.05.2019 12:00:00 11,7 10,8 - - 9 5 - - ENE 1010,9 4,7 0,0
19.05.2019 11:00:00 11,1 11,1 - - 9 5 - - NNE 1010,8 5 0,0
19.05.2019 10:00:00 10,5 10,5 12,7 11,0 9 5 - - ENE 1010,8 2,5 0,0
19.05.2019 09:00:00 10,2 10,2 - - 8 4 - - N 1010,2 0,7 0,0
19.05.2019 08:00:00 10,2 10,2 - - 9 5 - - NNE 1009,8 0,8 0,0
19.05.2019 07:00:00 10,0 10,0 - - 9 5 - - NE 1009,6 0,2 0,0
19.05.2019 06:00:00 9,8 9,8 - - 9 5 - - NE 1009,3 0,1 0,0
19.05.2019 05:00:00 8,5 8,5 - - 8 4 - - NW 1009,1 0,1 0,0
19.05.2019 04:00:00 6,5 6,5 - - 11 6 - - WNW 1009,2 0,1 0,0
19.05.2019 03:00:00 6,7 6,7 - - 9 5 - - N 1008,9 - 0,0
19.05.2019 02:00:00 6,7 6,7 - - 2 1 - - W 1008,7 - 0,0
19.05.2019 01:00:00 7,3 7,0 - - 8 4 - - ESE 1008,8 0,2 0,0
19.05.2019 00:00:00 9,0 8,9 - - 9 5 - - ESE 1008,9 0,3 0,0
18.05.2019 23:00:00 10,3 10,3 - - 8 4 - - E 1008,8 1,3 0,0
18.05.2019 22:00:00 10,1 9,7 - - 11 6 - - ENE 1008,8 2,9 0,0
18.05.2019 21:00:00 10,7 9,6 - - 11 6 - - NE 1008,3 6 0,0
18.05.2019 20:00:00 12,6 11,1 - - 9 5 - - ENE 1008,0 8 0,0
18.05.2019 19:00:00 13,3 11,5 - - 11 6 - - ENE 1007,5 9 0,0
18.05.2019 18:00:00 13,5 11,0 - - 9 5 - - E 1007,4 10 0,0
18.05.2019 17:00:00 13,8 10,4 - - 13 7 - - E 1007,2 13 0,0
18.05.2019 16:00:00 14,8 10,5 - - 11 6 - - E 1007,1 14 0,0
18.05.2019 15:00:00 14,6 11,3 - - 11 6 - - E 1006,9 10 0,0
18.05.2019 14:00:00 13,7 9,7 - - 8 4 - - ESE 1007,0 12 0,0
18.05.2019 13:00:00 13,7 10,5 - - 13 7 - - ENE 1006,8 11 0,0
18.05.2019 12:00:00 13,4 10,4 - - 13 7 - - ENE 1006,8 9 0,0
18.05.2019 11:00:00 12,4 10,6 - - 16 9 - - NE 1006,8 8 0,0
18.05.2019 10:00:00 12,1 10,9 12,5 11,0 15 8 - - NE 1006,7 6 0,0
18.05.2019 09:00:00 11,6 10,7 - - 15 8 - - ENE 1006,6 5 0,0
18.05.2019 08:00:00 11,3 10,9 - - 15 8 - - NE 1006,3 5 0,0
18.05.2019 07:00:00 10,7 10,5 - - 18 10 - - NE 1006,1 4,7 0,0
18.05.2019 06:00:00 10,5 10,4 - - 16 9 - - NE 1006,1 6 0,2
18.05.2019 05:00:00 10,3 10,2 - - 21 11 - - NE 1006,0 4,1 1,0
18.05.2019 04:00:00 10,4 10,3 - - 24 13 - - NE 1006,4 2,8 2,0
18.05.2019 03:00:00 10,7 10,6 - - 21 11 - - NE 1006,7 2,9 2,2
18.05.2019 02:00:00 10,7 10,5 - - 21 11 - - NE 1007,0 5 0,2
18.05.2019 01:00:00 10,6 10,5 - - 16 9 - - NNE 1007,3 3,3 0,0
18.05.2019 00:00:00 10,5 10,3 - - 18 10 - - NNE 1007,6 11 0,0
17.05.2019 23:00:00 10,3 10,1 - - 16 9 - - NE 1007,9 18 0,2
17.05.2019 22:00:00 10,4 9,9 - - 21 11 - - NE 1008,1 5 0,0
17.05.2019 21:00:00 10,5 9,8 - - 21 11 - - NE 1008,3 7 0,0
17.05.2019 20:00:00 11,0 9,0 - - 21 11 - - NE 1008,5 23 0,0
17.05.2019 19:00:00 11,4 9,4 - - 21 11 - - NE 1008,4 26 0,0
17.05.2019 18:00:00 11,5 9,2 - - 22 12 - - NE 1009,0 30 0,0
17.05.2019 17:00:00 12,1 9,2 - - 29 16 - - NE 1009,3 35 0,0
17.05.2019 16:00:00 12,5 8,7 - - 29 16 - - NE 1009,7 45 0,0
17.05.2019 15:00:00 13,3 9,2 - - 31 17 - - NE 1009,9 29 0,0
17.05.2019 14:00:00 13,4 9,9 - - 29 16 - - NE 1010,2 30 0,0
17.05.2019 13:00:00 13,7 10,8 - - 31 17 - - NE 1010,4 26 0,0
17.05.2019 12:00:00 13,0 11,0 - - 29 16 - - NE 1010,7 22 0,0
17.05.2019 11:00:00 12,4 10,1 - - 31 17 - - ENE 1011,0 19 0,0
17.05.2019 10:00:00 12,3 10,3 12,5 10,9 29 16 - - NE 1011,3 6 0,0
17.05.2019 09:00:00 11,5 9,7 - - 29 16 - - NE 1011,6 17 0,0
17.05.2019 08:00:00 11,0 9,9 - - 31 17 46 25 NE 1011,9 17 0,8
17.05.2019 07:00:00 10,9 9,5 - - 35 19 50 27 NE 1012,1 9 0,2
17.05.2019 06:00:00 11,4 9,5 - - 39 21 54 29 NE 1012,3 17 0,0
17.05.2019 05:00:00 10,6 8,4 - - 31 17 48 26 NNE 1012,7 24 0,0
17.05.2019 04:00:00 10,6 7,7 - - 37 20 48 26 NNE 1013,2 45 0,0
17.05.2019 03:00:00 10,4 8,7 - - 31 17 - - NNE 1013,9 30 0,0
17.05.2019 02:00:00 10,3 8,8 - - 29 16 - - NE 1015,0 28 0,0
17.05.2019 01:00:00 10,8 8,9 - - 29 16 - - ENE 1015,8 9 0,0
17.05.2019 00:00:00 10,8 8,1 - - 31 17 - - ENE 1016,3 25 0,0
16.05.2019 23:00:00 10,5 8,5 - - 35 19 - - ENE 1017,1 10 0,0
16.05.2019 22:00:00 10,2 8,1 - - 35 19 - - N 1017,6 10 0,0
16.05.2019 21:00:00 10,4 7,4 - - 29 16 - - ENE 1017,7 19 0,0
16.05.2019 20:00:00 11,3 6,4 - - 31 17 - - ENE 1018,3 45 0,0
16.05.2019 19:00:00 11,7 8,0 - - 29 16 - - ENE 1018,5 30 0,0
16.05.2019 18:00:00 11,9 7,9 - - 34 18 - - ENE 1019,2 24 0,0
16.05.2019 17:00:00 13,8 9,2 - - 31 17 - - ENE 1019,7 30 0,0
16.05.2019 16:00:00 13,7 8,3 - - 35 19 55 30 ENE 1020,1 50 0,0
16.05.2019 15:00:00 14,8 8,4 - - 44 24 54 29 ENE 1020,5 20 0,0
16.05.2019 14:00:00 15,5 8,7 - - 41 22 52 28 ENE 1020,9 26 0,0
16.05.2019 13:00:00 15,9 9,4 - - 37 20 - - ENE 1021,4 25 0,0
16.05.2019 12:00:00 15,2 7,7 - - 28 15 - - E 1021,8 10 0,0
16.05.2019 11:00:00 15,1 10,3 - - 28 15 - - NE 1022,1 16 0,0
16.05.2019 10:00:00 13,7 9,3 12,2 10,7 26 14 - - ENE 1022,4 40 0,0
16.05.2019 09:00:00 13,1 9,0 - - 22 12 - - E 1023,1 27 0,0
16.05.2019 08:00:00 11,9 8,6 - - 26 14 - - E 1023,2 28 0,0
16.05.2019 07:00:00 10,7 8,1 - - 24 13 - - E 1023,2 25 0,0
16.05.2019 06:00:00 9,3 7,4 - - 22 12 - - E 1023,2 30 0,0
16.05.2019 05:00:00 8,4 6,7 - - 24 13 - - E 1023,1 30 0,0
16.05.2019 04:00:00 8,2 6,5 - - 21 11 - - E 1023,6 30 0,0
16.05.2019 03:00:00 7,2 6,0 - - 18 10 - - E 1024,1 35 0,0
16.05.2019 02:00:00 4,6 4,0 - - 15 8 - - E 1024,6 15 0,0
16.05.2019 01:00:00 5,9 4,8 - - 13 7 - - E 1025,1 14 0,0
16.05.2019 00:00:00 6,9 5,6 - - 15 8 - - E 1025,4 14 0,0
15.05.2019 23:00:00 8,3 6,6 - - 15 8 - - E 1025,3 21 0,0
15.05.2019 22:00:00 9,6 7,9 - - 18 10 - - E 1025,4 24 0,0
15.05.2019 21:00:00 10,9 8,5 - - 21 11 - - E 1025,5 30 0,0
15.05.2019 20:00:00 12,2 9,2 - - 24 13 - - ENE 1025,3 30 0,0
15.05.2019 19:00:00 13,0 9,5 - - 28 15 - - ENE 1025,4 35 0,0
15.05.2019 18:00:00 13,3 8,9 - - 34 18 - - ENE 1025,7 30 0,0
15.05.2019 17:00:00 13,8 9,3 - - 34 18 - - ENE 1026,1 40 0,0
15.05.2019 16:00:00 13,8 8,9 - - 34 18 - - ENE 1026,6 35 0,0
15.05.2019 15:00:00 13,7 8,8 - - 31 17 - - ENE 1027,2 45 0,0

tt = temperature
td = dewpoint
tt -20cm = temperature -20cm
tt -100cm = temperature -100cm
ff = wind speed
fx = gusts
dd = wind direction
ppp = reduced air pressure
vv = visibility
rr = precipitation

Next stations